Weather reports worldwide

Advertisment
Lanveoc Poulmic, France (7109): temperature & dewpoint: 10.08.2018 18:00:00 - 16.08.2018 18:00:00 (CEST)Lanveoc Poulmic, France (7109): temperature 5cm: 10.08.2018 18:00:00 - 16.08.2018 18:00:00 (CEST)Lanveoc Poulmic, France (7109): wind speed & gusts: 10.08.2018 18:00:00 - 16.08.2018 18:00:00 (CEST)Lanveoc Poulmic, France (7109): wind direction: 10.08.2018 18:00:00 - 16.08.2018 18:00:00 (CEST)Lanveoc Poulmic, France (7109): reduced air pressure: 10.08.2018 18:00:00 - 16.08.2018 18:00:00 (CEST)Lanveoc Poulmic, France (7109): visibility: 10.08.2018 18:00:00 - 16.08.2018 18:00:00 (CEST)Lanveoc Poulmic, France (7109): precipitation: 10.08.2018 18:00:00 - 16.08.2018 18:00:00 (CEST)
Date & Time tt [°C] td [°C] tt 5cm [°C] ff [km/h] ff [kn] fx [km/h] fx [kn] dd ppp [hPa] vv [km] rr [mm]
16.08.2018 18:00:00 19,1 12,1 19,1 19 10 32 17 NW 1018,3 19 0,0
16.08.2018 17:00:00 19,5 12,5 16,1 16 8 28 15 NNW 1018,0 27 0,0
16.08.2018 16:00:00 17,6 11,8 16,9 19 11 29 16 NNW 1018,1 33 0,0
16.08.2018 15:00:00 16,9 14,0 16,5 16 9 25 13 NW 1018,0 19 0,0
16.08.2018 14:00:00 16,2 14,9 15,3 10 5 22 12 NNW 1017,6 20 0,0
16.08.2018 13:00:00 15,8 14,5 15,5 15 8 35 19 NW 1017,6 8 0,0
16.08.2018 12:00:00 17,6 17,0 16,2 15 8 32 18 W 1017,1 36 0,8
16.08.2018 11:00:00 16,9 16,6 16,0 19 11 27 15 WSW 1017,0 1,7 0,8
16.08.2018 10:00:00 16,6 15,8 15,8 19 10 31 17 WSW 1017,1 2,2 0,2
16.08.2018 09:00:00 17,5 15,8 15,7 16 8 24 13 SW 1016,8 49 0,0
16.08.2018 08:00:00 16,7 16,2 15,7 15 8 21 12 SW 1016,8 40 0,0
16.08.2018 07:00:00 16,4 15,9 15,6 12 7 23 12 SSW 1017,1 50 0,0
16.08.2018 06:00:00 16,2 15,7 15,2 12 7 19 10 SSW 1017,0 47 0,0
16.08.2018 05:00:00 16,2 15,9 15,3 9 5 16 9 SSW 1017,4 31 0,0
16.08.2018 04:00:00 16,3 16,0 15,3 11 6 16 8 SSW 1018,1 9 0,0
16.08.2018 03:00:00 16,3 16,0 15,7 10 5 16 9 SSW 1019,0 7 0,2
16.08.2018 02:00:00 16,6 15,8 15,9 9 5 14 8 SSW 1019,3 5 0,0
16.08.2018 01:00:00 16,8 15,5 16,0 8 4 13 7 SSW 1019,4 17 0,0
16.08.2018 00:00:00 17,0 15,3 16,1 9 5 16 9 SSW 1019,7 16 0,0
15.08.2018 23:00:00 17,5 15,5 16,8 8 5 16 8 WSW 1020,3 56 0,0
15.08.2018 22:00:00 17,6 15,6 16,3 10 5 18 10 SW 1020,3 58 0,0
15.08.2018 21:00:00 17,9 15,9 16,7 10 6 21 11 SW 1020,3 59 0,0
15.08.2018 20:00:00 18,4 16,0 17,5 12 6 20 11 SW 1020,3 58 0,0
15.08.2018 19:00:00 18,9 16,1 18,8 13 7 19 10 WSW 1020,5 52 0,0
15.08.2018 18:00:00 19,1 16,0 19,6 14 8 27 14 WSW 1021,0 20 0,0
15.08.2018 17:00:00 19,3 16,0 19,3 20 11 29 16 WSW 1021,3 37 0,0
15.08.2018 16:00:00 19,2 16,4 17,4 19 10 27 14 WSW 1021,8 44 0,0
15.08.2018 15:00:00 19,0 16,8 17,4 18 10 27 14 WSW 1022,3 20 0,0
15.08.2018 14:00:00 19,1 16,1 18,6 18 10 27 15 WSW 1022,4 32 0,0
15.08.2018 13:00:00 19,5 16,3 18,6 19 10 27 15 WSW 1022,6 53 0,0
15.08.2018 12:00:00 19,0 16,4 18,0 16 9 24 13 WSW 1022,6 32 0,0
15.08.2018 11:00:00 18,3 16,1 16,3 15 8 24 13 W 1022,7 19 0,0
15.08.2018 10:00:00 18,1 16,3 16,7 14 8 22 12 WSW 1022,5 20 0,0
15.08.2018 09:00:00 17,2 16,2 16,3 9 5 19 10 SW 1022,5 28 0,0
15.08.2018 08:00:00 16,8 16,3 15,3 13 7 19 10 WSW 1022,5 13 0,0
15.08.2018 07:00:00 16,8 16,3 15,9 13 7 20 11 WSW 1022,3 9 0,0
15.08.2018 06:00:00 16,9 16,4 16,2 11 6 18 10 WSW 1022,6 8 0,0
15.08.2018 05:00:00 16,9 16,4 16,4 9 5 14 7 WSW 1022,7 7 0,0
15.08.2018 04:00:00 17,0 16,5 15,6 10 5 14 7 WSW 1022,7 9 0,0
15.08.2018 03:00:00 16,9 16,1 15,8 9 5 13 7 SW 1023,1 14 0,0
15.08.2018 02:00:00 16,9 15,6 16,4 8 5 11 6 SW 1023,4 19 0,0
15.08.2018 01:00:00 16,9 15,6 16,3 7 4 12 7 SW 1023,3 20 0,0
15.08.2018 00:00:00 16,8 15,8 16,0 9 5 13 7 W 1023,5 25 0,0
14.08.2018 23:00:00 16,3 15,8 15,4 8 4 14 8 WNW 1023,7 6 0,0
14.08.2018 22:00:00 16,8 15,7 16,0 9 5 13 7 W 1023,4 16 0,0
14.08.2018 21:00:00 18,4 16,7 17,2 9 5 20 11 W 1022,7 19 0,0
14.08.2018 20:00:00 18,7 17,0 16,9 13 7 28 15 W 1022,6 30 0,0
14.08.2018 19:00:00 19,9 17,3 17,2 13 7 27 14 WNW 1022,6 47 0,0
14.08.2018 18:00:00 20,0 16,8 20,2 18 10 25 13 WNW 1022,8 27 0,0
14.08.2018 17:00:00 20,5 17,1 19,1 14 7 22 12 WNW 1022,5 24 0,0
14.08.2018 16:00:00 19,8 17,4 18,4 16 8 24 13 WNW 1022,5 56 0,0
14.08.2018 15:00:00 19,9 17,7 17,7 17 9 29 15 WNW 1022,5 31 0,0
14.08.2018 14:00:00 19,9 17,7 17,7 17 9 25 13 WNW 1022,2 9 0,0
14.08.2018 13:00:00 19,7 18,2 15,8 16 9 23 12 WNW 1021,8 10 0,0
14.08.2018 12:00:00 18,0 17,5 17,0 9 5 18 10 W 1021,7 2,7 0,0
14.08.2018 11:00:00 17,5 17,0 16,3 11 6 16 9 W 1021,2 4,0 0,0
14.08.2018 10:00:00 17,1 16,6 16,4 11 6 15 8 WSW 1020,8 4,7 0,0
14.08.2018 09:00:00 16,4 15,9 15,6 6 3 10 5 SW 1020,5 4,9 0,0
14.08.2018 08:00:00 16,4 15,1 15,5 7 4 15 8 W 1020,2 18 0,0
14.08.2018 07:00:00 16,2 14,4 15,8 7 4 19 10 NW 1019,5 40 0,0
14.08.2018 06:00:00 16,3 14,1 15,5 13 7 20 11 NW 1019,2 51 0,0
14.08.2018 05:00:00 16,6 14,1 15,3 14 8 22 12 WNW 1018,9 60 0,0
14.08.2018 04:00:00 16,1 13,9 15,7 9 5 22 12 NW 1018,7 60 0,0
14.08.2018 03:00:00 16,4 14,2 15,9 19 10 31 17 NW 1018,4 20 0,0
14.08.2018 02:00:00 16,7 14,3 16,3 11 6 23 12 NW 1018,3 45 0,0
14.08.2018 01:00:00 16,9 13,8 16,3 11 6 36 19 NW 1017,8 60 0,0
14.08.2018 00:00:00 16,9 14,4 16,4 15 8 22 12 NW 1017,4 60 0,0
13.08.2018 23:00:00 17,1 14,6 16,4 13 7 23 12 NW 1017,0 52 0,0
13.08.2018 22:00:00 17,3 14,6 16,5 15 8 26 14 NW 1016,4 60 0,0
13.08.2018 21:00:00 17,7 14,8 17,2 16 8 26 14 NW 1015,7 48 0,0
13.08.2018 20:00:00 18,9 14,6 17,9 17 9 27 15 NW 1014,8 24 0,0
13.08.2018 19:00:00 20,1 14,5 20,9 21 11 30 16 NW 1014,4 27 0,0
13.08.2018 18:00:00 20,5 15,3 21,4 20 11 31 17 WNW 1014,1 26 0,0
13.08.2018 17:00:00 21,5 15,6 20,9 21 11 31 17 WNW 1013,5 27 0,0
13.08.2018 16:00:00 21,4 15,9 16,2 21 11 34 18 WNW 1013,3 25 0,0
13.08.2018 15:00:00 20,5 16,1 20,3 22 12 31 17 WNW 1013,2 27 0,0
13.08.2018 14:00:00 21,0 16,4 22,6 19 11 28 15 W 1012,7 34 0,0
13.08.2018 13:00:00 20,0 15,6 20,4 20 11 30 16 WNW 1012,5 31 0,0
13.08.2018 12:00:00 19,6 16,2 18,1 15 8 27 15 WNW 1012,2 51 0,0
13.08.2018 11:00:00 18,6 16,9 18,2 13 7 18 10 W 1011,7 45 0,0
13.08.2018 10:00:00 17,0 16,7 16,2 6 3 10 5 W 1011,5 60 0,4
13.08.2018 09:00:00 15,9 15,6 15,6 7 4 10 5 N 1011,1 1,4 0,2
13.08.2018 08:00:00 16,2 16,0 15,2 8 4 13 7 WNW 1010,2 16 0,2
13.08.2018 07:00:00 16,1 15,9 15,4 12 6 19 10 WNW 1009,8 7 0,6
13.08.2018 06:00:00 16,1 15,8 15,4 10 6 21 11 W 1009,7 14 0,2
13.08.2018 05:00:00 16,2 15,9 15,5 12 7 20 11 W 1009,6 8 2,6
13.08.2018 04:00:00 16,2 15,9 15,4 11 6 25 13 WSW 1009,5 13 0,0
13.08.2018 03:00:00 16,2 15,6 15,2 13 7 19 10 SW 1009,7 8 0,0
13.08.2018 02:00:00 16,1 15,3 15,3 14 7 19 11 WSW 1009,8 19 0,0
13.08.2018 01:00:00 15,8 15,0 14,9 13 7 19 11 WSW 1009,7 31 0,0
13.08.2018 00:00:00 16,0 15,4 15,4 13 7 22 12 WSW 1009,8 29 0,0
12.08.2018 23:00:00 16,0 15,2 15,2 14 8 34 18 SW 1009,7 14 0,4
12.08.2018 22:00:00 16,7 14,7 16,1 13 7 24 13 SW 1009,4 18 0,0
12.08.2018 21:00:00 17,1 14,7 16,6 14 8 34 18 WSW 1009,3 48 0,0
12.08.2018 20:00:00 18,0 14,5 17,8 22 12 35 19 WSW 1009,2 37 0,0
12.08.2018 19:00:00 18,3 15,4 17,4 19 10 33 18 WSW 1009,3 16 0,0
12.08.2018 18:00:00 18,4 14,9 18,6 23 12 37 20 WSW 1009,6 20 0,0
12.08.2018 17:00:00 19,8 15,2 20,6 25 14 37 20 WSW 1009,6 22 0,0
12.08.2018 16:00:00 19,1 15,2 16,8 21 11 40 21 SW 1009,9 20 0,0
12.08.2018 15:00:00 18,9 16,5 17,5 21 12 34 19 SW 1010,2 20 0,0
12.08.2018 14:00:00 18,5 17,0 16,2 13 7 23 13 SW 1010,4 21 0,0
12.08.2018 13:00:00 19,0 18,0 18,6 12 7 19 10 SSW 1010,4 20 0,0
12.08.2018 12:00:00 18,2 18,0 16,1 7 4 24 13 SW 1010,5 13 0,2
12.08.2018 11:00:00 17,3 17,1 16,6 25 14 46 25 WSW 1010,6 1,7 6,2
12.08.2018 10:00:00 17,7 17,5 16,4 25 13 43 23 S 1010,4 8 5,7
12.08.2018 09:00:00 17,5 17,2 16,7 22 12 41 22 S 1011,1 2,6 5,9
12.08.2018 08:00:00 17,8 17,3 16,7 26 14 39 21 S 1011,4 17 0,2
12.08.2018 07:00:00 17,5 17,2 16,6 23 12 39 21 S 1011,9 8 1,8
12.08.2018 06:00:00 17,7 16,9 16,8 23 13 38 21 S 1013,0 3,8 0,8
12.08.2018 05:00:00 18,1 16,1 16,2 21 12 34 18 S 1013,9 40 0,0
12.08.2018 04:00:00 18,1 15,7 16,4 22 12 35 19 S 1014,8 48 0,0
12.08.2018 03:00:00 17,9 15,2 16,7 19 10 32 17 S 1015,5 53 0,0
12.08.2018 02:00:00 17,7 15,1 16,6 16 9 31 17 S 1016,3 59 0,0
12.08.2018 01:00:00 17,7 15,0 16,6 21 11 34 18 S 1017,1 49 0,0
12.08.2018 00:00:00 17,4 15,0 16,6 16 9 29 15 S 1018,0 43 0,0
11.08.2018 23:00:00 17,5 14,8 16,5 16 9 27 15 S 1018,8 56 0,0
11.08.2018 22:00:00 17,6 14,3 16,7 16 9 30 16 S 1019,1 60 0,0
11.08.2018 21:00:00 18,1 13,8 17,7 15 8 29 16 S 1019,6 54 0,0
11.08.2018 20:00:00 18,9 14,2 18,4 20 11 39 21 S 1020,0 43 0,0
11.08.2018 19:00:00 19,8 14,4 21,2 24 13 42 23 S 1020,4 41 0,0
11.08.2018 18:00:00 20,9 14,5 22,7 26 14 45 24 S 1020,9 19 0,0
11.08.2018 17:00:00 20,8 14,0 22,3 27 14 47 26 S 1021,5 20 0,0
11.08.2018 16:00:00 21,3 13,5 24,0 29 16 45 24 SSW 1022,2 22 0,0
11.08.2018 15:00:00 20,6 13,8 22,4 26 14 45 25 S 1022,7 26 0,0
11.08.2018 14:00:00 20,0 13,0 22,3 29 15 43 23 SSW 1023,0 30 0,0
11.08.2018 13:00:00 20,2 13,9 19,3 28 15 40 21 S 1023,2 35 0,0
11.08.2018 12:00:00 19,7 13,8 19,5 24 13 37 20 SSW 1023,4 20 0,0
11.08.2018 11:00:00 19,2 14,5 16,5 18 10 33 18 SSW 1023,5 36 0,0
11.08.2018 10:00:00 18,8 14,7 18,1 19 11 32 18 SSW 1023,6 26 0,0
11.08.2018 09:00:00 17,6 15,4 16,0 14 8 26 14 SSW 1023,9 17 0,0
11.08.2018 08:00:00 16,0 15,2 14,6 10 6 18 10 SSW 1023,9 20 0,0
11.08.2018 07:00:00 15,5 15,0 14,5 11 6 17 9 S 1023,8 14 0,0
11.08.2018 06:00:00 15,4 14,9 14,3 8 4 12 7 S 1024,1 12 0,0
11.08.2018 05:00:00 15,3 14,7 14,6 8 4 16 8 S 1024,3 18 0,0
11.08.2018 04:00:00 15,3 14,7 14,0 8 5 15 8 SSW 1024,6 19 0,0
11.08.2018 03:00:00 14,8 14,2 13,5 8 4 12 6 SSW 1024,9 19 0,0
11.08.2018 02:00:00 14,9 13,9 13,8 10 5 14 8 SSW 1025,2 20 0,0
11.08.2018 01:00:00 15,0 13,9 14,1 8 5 11 6 SSW 1025,4 17 0,0
11.08.2018 00:00:00 15,2 14,1 14,6 7 4 15 8 SSW 1025,4 20 0,0
10.08.2018 23:00:00 15,4 13,8 14,4 11 6 15 8 WSW 1025,2 28 0,0
10.08.2018 22:00:00 16,0 14,0 14,8 9 5 17 9 WSW 1024,8 30 0,0
10.08.2018 21:00:00 17,4 14,1 16,8 12 6 25 13 WSW 1024,3 20 0,0
10.08.2018 20:00:00 18,4 13,9 17,3 20 11 32 18 W 1024,0 23 0,0
10.08.2018 19:00:00 17,6 14,3 17,1 21 11 37 20 WSW 1024,1 27 0,0
10.08.2018 18:00:00 18,5 14,0 17,4 25 13 38 21 WSW 1023,9 15 0,0

tt = temperature
td = dewpoint
tt 5cm = temperature 5cm
ff = wind speed
fx = gusts
dd = wind direction
ppp = reduced air pressure
vv = visibility
rr = precipitation

Next stations